owner,sensor,date,latitude,longitude,air_pressure(mBar),qcFlag 
COMPS,ioos:station:USF.COMPS:C10:1,2015-06-01T00:05:00Z,27.1690,-82.9260,1013.28,1111122 
COMPS,ioos:station:USF.COMPS:C10:1,2015-06-01T00:35:00Z,27.1690,-82.9260,1013.61,1111122 
COMPS,ioos:station:USF.COMPS:C10:1,2015-06-01T01:05:00Z,27.1690,-82.9260,1014.23,1111122 
COMPS,ioos:station:USF.COMPS:C10:1,2015-06-01T01:35:00Z,27.1690,-82.9260,1014.64,1111122 
COMPS,ioos:station:USF.COMPS:C10:1,2015-06-01T02:05:00Z,27.1690,-82.9260,1015.37,1111122 
COMPS,ioos:station:USF.COMPS:C10:1,2015-06-01T02:35:00Z,27.1690,-82.9260,1016.0,1111122 
COMPS,ioos:station:USF.COMPS:C10:1,2015-06-01T04:05:00Z,27.1690,-82.9260,1015.58,1111122 
COMPS,ioos:station:USF.COMPS:C10:1,2015-06-01T04:35:00Z,27.1690,-82.9260,1015.57,1111122 
COMPS,ioos:station:USF.COMPS:C10:1,2015-06-01T05:05:00Z,27.1690,-82.9260,1015.58,1111122 
COMPS,ioos:station:USF.COMPS:C10:1,2015-06-01T05:35:00Z,27.1690,-82.9260,1015.43,1111122 
COMPS,ioos:station:USF.COMPS:C10:1,2015-06-01T06:05:00Z,27.1690,-82.9260,1015.42,1111122 
COMPS,ioos:station:USF.COMPS:C10:1,2015-06-01T06:35:00Z,27.1690,-82.9260,1015.35,1111122 
COMPS,ioos:station:USF.COMPS:C10:1,2015-06-01T07:05:00Z,27.1690,-82.9260,1014.97,1111122 
COMPS,ioos:station:USF.COMPS:C10:1,2015-06-01T07:35:00Z,27.1690,-82.9260,1014.73,1111122 
COMPS,ioos:station:USF.COMPS:C10:1,2015-06-01T08:05:00Z,27.1690,-82.9260,1014.46,1111122 
COMPS,ioos:station:USF.COMPS:C10:1,2015-06-01T08:35:00Z,27.1690,-82.9260,1014.44,1111122 
COMPS,ioos:station:USF.COMPS:C10:1,2015-06-01T09:05:00Z,27.1690,-82.9260,1014.5,1111122 
COMPS,ioos:station:USF.COMPS:C10:1,2015-06-01T09:35:00Z,27.1690,-82.9260,1014.49,1111122 
COMPS,ioos:station:USF.COMPS:C10:1,2015-06-01T10:05:00Z,27.1690,-82.9260,1014.82,1111122 
COMPS,ioos:station:USF.COMPS:C10:1,2015-06-01T10:35:00Z,27.1690,-82.9260,1015.07,1111122 
COMPS,ioos:station:USF.COMPS:C10:1,2015-06-01T11:05:00Z,27.1690,-82.9260,1015.22,1111122 
COMPS,ioos:station:USF.COMPS:C10:1,2015-06-01T11:35:00Z,27.1690,-82.9260,1015.5,1111122 
COMPS,ioos:station:USF.COMPS:C10:1,2015-06-01T12:05:00Z,27.1690,-82.9260,1015.55,1111122 
COMPS,ioos:station:USF.COMPS:C10:1,2015-06-01T12:35:00Z,27.1690,-82.9260,1015.65,1111122 
COMPS,ioos:station:USF.COMPS:C10:1,2015-06-01T13:05:00Z,27.1690,-82.9260,1016.19,1111122 
COMPS,ioos:station:USF.COMPS:C10:1,2015-06-01T13:35:00Z,27.1690,-82.9260,1016.44,1111122 
COMPS,ioos:station:USF.COMPS:C10:1,2015-06-01T14:05:00Z,27.1690,-82.9260,1016.47,1111122 
COMPS,ioos:station:USF.COMPS:C10:1,2015-06-01T14:35:00Z,27.1690,-82.9260,1016.48,1111122 
COMPS,ioos:station:USF.COMPS:C10:1,2015-06-01T15:05:00Z,27.1690,-82.9260,1016.47,1111122 
COMPS,ioos:station:USF.COMPS:C10:1,2015-06-01T15:35:00Z,27.1690,-82.9260,1016.47,1111122 
COMPS,ioos:station:USF.COMPS:C10:1,2015-06-01T16:05:00Z,27.1690,-82.9260,1016.33,1111122 
COMPS,ioos:station:USF.COMPS:C10:1,2015-06-01T16:35:00Z,27.1690,-82.9260,1016.42,1111122 
COMPS,ioos:station:USF.COMPS:C10:1,2015-06-01T17:05:00Z,27.1690,-82.9260,1016.27,1111122 
COMPS,ioos:station:USF.COMPS:C10:1,2015-06-01T17:35:00Z,27.1690,-82.9260,1015.99,1111122 
COMPS,ioos:station:USF.COMPS:C10:1,2015-06-01T18:05:00Z,27.1690,-82.9260,1015.91,1111122 
COMPS,ioos:station:USF.COMPS:C10:1,2015-06-01T18:35:00Z,27.1690,-82.9260,1015.37,1111122 
COMPS,ioos:station:USF.COMPS:C10:1,2015-06-01T19:05:00Z,27.1690,-82.9260,1015.0,1111122 
COMPS,ioos:station:USF.COMPS:C10:1,2015-06-01T19:35:00Z,27.1690,-82.9260,1014.42,1111122 
COMPS,ioos:station:USF.COMPS:C10:1,2015-06-01T20:05:00Z,27.1690,-82.9260,1014.17,1111122 
COMPS,ioos:station:USF.COMPS:C10:1,2015-06-01T20:35:00Z,27.1690,-82.9260,1014.15,1111122 
COMPS,ioos:station:USF.COMPS:C10:1,2015-06-01T21:05:00Z,27.1690,-82.9260,1014.18,1111122 
COMPS,ioos:station:USF.COMPS:C10:1,2015-06-01T21:35:00Z,27.1690,-82.9260,1013.65,1111122 
COMPS,ioos:station:USF.COMPS:C10:1,2015-06-01T22:05:00Z,27.1690,-82.9260,1013.64,1111122 
COMPS,ioos:station:USF.COMPS:C10:1,2015-06-01T22:35:00Z,27.1690,-82.9260,1013.56,1111122 
COMPS,ioos:station:USF.COMPS:C10:1,2015-06-02T00:05:00Z,27.1690,-82.9260,1014.19,1111122 
COMPS,ioos:station:USF.COMPS:C10:1,2015-06-02T00:35:00Z,27.1690,-82.9260,1014.69,1111122 
COMPS,ioos:station:USF.COMPS:C10:1,2015-06-02T01:05:00Z,27.1690,-82.9260,1014.96,1111122 
COMPS,ioos:station:USF.COMPS:C10:1,2015-06-02T01:35:00Z,27.1690,-82.9260,1015.36,1111122 
COMPS,ioos:station:USF.COMPS:C10:1,2015-06-02T02:05:00Z,27.1690,-82.9260,1015.88,1111122 
COMPS,ioos:station:USF.COMPS:C10:1,2015-06-02T02:35:00Z,27.1690,-82.9260,1015.93,1111122 
COMPS,ioos:station:USF.COMPS:C10:1,2015-06-02T03:05:00Z,27.1690,-82.9260,1015.76,1111122 
COMPS,ioos:station:USF.COMPS:C10:1,2015-06-02T03:35:00Z,27.1690,-82.9260,1015.62,1111122 
COMPS,ioos:station:USF.COMPS:C10:1,2015-06-02T04:05:00Z,27.1690,-82.9260,1015.43,1111122 
COMPS,ioos:station:USF.COMPS:C10:1,2015-06-02T04:35:00Z,27.1690,-82.9260,1015.05,1111122 
COMPS,ioos:station:USF.COMPS:C10:1,2015-06-02T05:05:00Z,27.1690,-82.9260,1014.88,1111122 
COMPS,ioos:station:USF.COMPS:C10:1,2015-06-02T05:35:00Z,27.1690,-82.9260,1014.46,1111122 
COMPS,ioos:station:USF.COMPS:C10:1,2015-06-02T06:05:00Z,27.1690,-82.9260,1014.05,1111122 
COMPS,ioos:station:USF.COMPS:C10:1,2015-06-02T06:35:00Z,27.1690,-82.9260,1013.48,1111122 
COMPS,ioos:station:USF.COMPS:C10:1,2015-06-02T07:05:00Z,27.1690,-82.9260,1013.03,1111122 
COMPS,ioos:station:USF.COMPS:C10:1,2015-06-02T07:35:00Z,27.1690,-82.9260,1012.88,1111122 
COMPS,ioos:station:USF.COMPS:C10:1,2015-06-02T08:05:00Z,27.1690,-82.9260,1012.83,1111122 
COMPS,ioos:station:USF.COMPS:C10:1,2015-06-02T08:35:00Z,27.1690,-82.9260,1012.71,1111122 
COMPS,ioos:station:USF.COMPS:C10:1,2015-06-02T09:05:00Z,27.1690,-82.9260,1012.83,1111122 
COMPS,ioos:station:USF.COMPS:C10:1,2015-06-02T09:35:00Z,27.1690,-82.9260,1013.1,1111122 
COMPS,ioos:station:USF.COMPS:C10:1,2015-06-02T10:05:00Z,27.1690,-82.9260,1013.19,1111122 
COMPS,ioos:station:USF.COMPS:C10:1,2015-06-02T10:35:00Z,27.1690,-82.9260,1013.36,1111122 
COMPS,ioos:station:USF.COMPS:C10:1,2015-06-02T11:05:00Z,27.1690,-82.9260,1013.74,1111122 
COMPS,ioos:station:USF.COMPS:C10:1,2015-06-02T11:35:00Z,27.1690,-82.9260,1013.93,1111122 
COMPS,ioos:station:USF.COMPS:C10:1,2015-06-02T12:05:00Z,27.1690,-82.9260,1013.96,1111122 
COMPS,ioos:station:USF.COMPS:C10:1,2015-06-02T12:35:00Z,27.1690,-82.9260,1013.88,1111122 
COMPS,ioos:station:USF.COMPS:C10:1,2015-06-02T13:05:00Z,27.1690,-82.9260,1013.86,1111122 
COMPS,ioos:station:USF.COMPS:C10:1,2015-06-02T13:35:00Z,27.1690,-82.9260,1014.2,1111122 
COMPS,ioos:station:USF.COMPS:C10:1,2015-06-02T14:05:00Z,27.1690,-82.9260,1014.25,1111122 
COMPS,ioos:station:USF.COMPS:C10:1,2015-06-02T14:35:00Z,27.1690,-82.9260,1014.57,1111122 
COMPS,ioos:station:USF.COMPS:C10:1,2015-06-02T15:05:00Z,27.1690,-82.9260,1014.14,1111122 
COMPS,ioos:station:USF.COMPS:C10:1,2015-06-02T15:35:00Z,27.1690,-82.9260,1014.45,1111122 
COMPS,ioos:station:USF.COMPS:C10:1,2015-06-02T16:05:00Z,27.1690,-82.9260,1014.32,1111122 
COMPS,ioos:station:USF.COMPS:C10:1,2015-06-02T16:35:00Z,27.1690,-82.9260,1014.37,1111122 
COMPS,ioos:station:USF.COMPS:C10:1,2015-06-02T17:05:00Z,27.1690,-82.9260,1015.11,1111122 
COMPS,ioos:station:USF.COMPS:C10:1,2015-06-02T17:35:00Z,27.1690,-82.9260,1015.16,1111122 
COMPS,ioos:station:USF.COMPS:C10:1,2015-06-02T18:05:00Z,27.1690,-82.9260,1015.19,1111122 
COMPS,ioos:station:USF.COMPS:C10:1,2015-06-02T18:35:00Z,27.1690,-82.9260,1015.14,1111122 
COMPS,ioos:station:USF.COMPS:C10:1,2015-06-02T19:05:00Z,27.1690,-82.9260,1014.7,1111122 
COMPS,ioos:station:USF.COMPS:C10:1,2015-06-02T19:35:00Z,27.1690,-82.9260,1014.36,1111122 
COMPS,ioos:station:USF.COMPS:C10:1,2015-06-02T20:05:00Z,27.1690,-82.9260,1013.78,1111122 
COMPS,ioos:station:USF.COMPS:C10:1,2015-06-02T20:35:00Z,27.1690,-82.9260,1013.62,1111122 
COMPS,ioos:station:USF.COMPS:C10:1,2015-06-02T21:05:00Z,27.1690,-82.9260,1013.31,1111122 
COMPS,ioos:station:USF.COMPS:C10:1,2015-06-02T21:35:00Z,27.1690,-82.9260,1013.58,1111122 
COMPS,ioos:station:USF.COMPS:C10:1,2015-06-02T22:05:00Z,27.1690,-82.9260,1013.37,1111122 
COMPS,ioos:station:USF.COMPS:C10:1,2015-06-02T22:35:00Z,27.1690,-82.9260,1012.58,1111122 
COMPS,ioos:station:USF.COMPS:C10:1,2015-06-02T23:05:00Z,27.1690,-82.9260,1012.47,1111122 
COMPS,ioos:station:USF.COMPS:C10:1,2015-06-02T23:35:00Z,27.1690,-82.9260,1012.88,1111122 
COMPS,ioos:station:USF.COMPS:C10:1,2015-06-03T00:05:00Z,27.1690,-82.9260,1012.79,1111122 
COMPS,ioos:station:USF.COMPS:C10:1,2015-06-03T00:35:00Z,27.1690,-82.9260,1012.71,1111122 
COMPS,ioos:station:USF.COMPS:C10:1,2015-06-03T01:05:00Z,27.1690,-82.9260,1012.6,1111122 
COMPS,ioos:station:USF.COMPS:C10:1,2015-06-03T01:35:00Z,27.1690,-82.9260,1012.71,1111122 
COMPS,ioos:station:USF.COMPS:C10:1,2015-06-03T04:05:00Z,27.1690,-82.9260,1012.78,1111122 
COMPS,ioos:station:USF.COMPS:C10:1,2015-06-03T04:35:00Z,27.1690,-82.9260,1012.57,1111122 
COMPS,ioos:station:USF.COMPS:C10:1,2015-06-03T05:05:00Z,27.1690,-82.9260,1012.4,1111122 
COMPS,ioos:station:USF.COMPS:C10:1,2015-06-03T05:35:00Z,27.1690,-82.9260,1012.28,1111122 
COMPS,ioos:station:USF.COMPS:C10:1,2015-06-03T06:05:00Z,27.1690,-82.9260,1011.83,1111122 
COMPS,ioos:station:USF.COMPS:C10:1,2015-06-03T06:35:00Z,27.1690,-82.9260,1011.52,1111122 
COMPS,ioos:station:USF.COMPS:C10:1,2015-06-03T07:05:00Z,27.1690,-82.9260,1011.39,1111122 
COMPS,ioos:station:USF.COMPS:C10:1,2015-06-03T07:35:00Z,27.1690,-82.9260,1010.86,1111122 
COMPS,ioos:station:USF.COMPS:C10:1,2015-06-03T08:05:00Z,27.1690,-82.9260,1010.73,1111122 
COMPS,ioos:station:USF.COMPS:C10:1,2015-06-03T08:35:00Z,27.1690,-82.9260,1010.95,1111122 
COMPS,ioos:station:USF.COMPS:C10:1,2015-06-03T09:05:00Z,27.1690,-82.9260,1010.83,1111122 
COMPS,ioos:station:USF.COMPS:C10:1,2015-06-03T09:35:00Z,27.1690,-82.9260,1010.74,1111122 
COMPS,ioos:station:USF.COMPS:C10:1,2015-06-03T10:05:00Z,27.1690,-82.9260,1010.93,1111122 
COMPS,ioos:station:USF.COMPS:C10:1,2015-06-03T10:35:00Z,27.1690,-82.9260,1011.02,1111122 
COMPS,ioos:station:USF.COMPS:C10:1,2015-06-03T11:05:00Z,27.1690,-82.9260,1011.13,1111122 
COMPS,ioos:station:USF.COMPS:C10:1,2015-06-03T11:35:00Z,27.1690,-82.9260,1011.15,1111122 
COMPS,ioos:station:USF.COMPS:C10:1,2015-06-03T12:05:00Z,27.1690,-82.9260,1011.38,1111122 
COMPS,ioos:station:USF.COMPS:C10:1,2015-06-03T12:35:00Z,27.1690,-82.9260,1011.77,1111122 
COMPS,ioos:station:USF.COMPS:C10:1,2015-06-03T13:05:00Z,27.1690,-82.9260,1011.96,1111122 
COMPS,ioos:station:USF.COMPS:C10:1,2015-06-03T13:35:00Z,27.1690,-82.9260,1012.27,1111122 
COMPS,ioos:station:USF.COMPS:C10:1,2015-06-03T14:05:00Z,27.1690,-82.9260,1012.36,1111122 
COMPS,ioos:station:USF.COMPS:C10:1,2015-06-03T14:35:00Z,27.1690,-82.9260,1012.3,1111122 
COMPS,ioos:station:USF.COMPS:C10:1,2015-06-03T15:05:00Z,27.1690,-82.9260,1012.47,1111122 
COMPS,ioos:station:USF.COMPS:C10:1,2015-06-03T15:35:00Z,27.1690,-82.9260,1012.71,1111122 
COMPS,ioos:station:USF.COMPS:C10:1,2015-06-03T16:05:00Z,27.1690,-82.9260,1012.77,1111122 
COMPS,ioos:station:USF.COMPS:C10:1,2015-06-03T16:35:00Z,27.1690,-82.9260,1012.6,1111122 
COMPS,ioos:station:USF.COMPS:C10:1,2015-06-03T17:05:00Z,27.1690,-82.9260,1012.36,1111122 
COMPS,ioos:station:USF.COMPS:C10:1,2015-06-03T17:35:00Z,27.1690,-82.9260,1012.31,1111122 
COMPS,ioos:station:USF.COMPS:C10:1,2015-06-03T18:05:00Z,27.1690,-82.9260,1012.15,1111122 
COMPS,ioos:station:USF.COMPS:C10:1,2015-06-03T18:35:00Z,27.1690,-82.9260,1011.79,1111122 
COMPS,ioos:station:USF.COMPS:C10:1,2015-06-03T19:05:00Z,27.1690,-82.9260,1011.62,1111122 
COMPS,ioos:station:USF.COMPS:C10:1,2015-06-03T19:35:00Z,27.1690,-82.9260,1011.17,1111122 
COMPS,ioos:station:USF.COMPS:C10:1,2015-06-03T20:05:00Z,27.1690,-82.9260,1010.89,1111122 
COMPS,ioos:station:USF.COMPS:C10:1,2015-06-03T20:35:00Z,27.1690,-82.9260,1010.4,1111122 
COMPS,ioos:station:USF.COMPS:C10:1,2015-06-03T21:05:00Z,27.1690,-82.9260,1009.99,1111122 
COMPS,ioos:station:USF.COMPS:C10:1,2015-06-03T21:35:00Z,27.1690,-82.9260,1009.93,1111122 
COMPS,ioos:station:USF.COMPS:C10:1,2015-06-03T22:05:00Z,27.1690,-82.9260,1009.79,1111122 
COMPS,ioos:station:USF.COMPS:C10:1,2015-06-03T22:35:00Z,27.1690,-82.9260,1009.57,1111122 
COMPS,ioos:station:USF.COMPS:C10:1,2015-06-03T23:05:00Z,27.1690,-82.9260,1009.72,1111122 
COMPS,ioos:station:USF.COMPS:C10:1,2015-06-03T23:35:00Z,27.1690,-82.9260,1009.9,1111122 
COMPS,ioos:station:USF.COMPS:C10:1,2015-06-04T04:05:00Z,27.1690,-82.9260,1011.75,1111122 
COMPS,ioos:station:USF.COMPS:C10:1,2015-06-04T04:35:00Z,27.1690,-82.9260,1011.85,1111122 
COMPS,ioos:station:USF.COMPS:C10:1,2015-06-04T05:05:00Z,27.1690,-82.9260,1011.63,1111122 
COMPS,ioos:station:USF.COMPS:C10:1,2015-06-04T05:35:00Z,27.1690,-82.9260,1011.5,1111122 
COMPS,ioos:station:USF.COMPS:C10:1,2015-06-04T06:05:00Z,27.1690,-82.9260,1011.43,1111122 
COMPS,ioos:station:USF.COMPS:C10:1,2015-06-04T06:35:00Z,27.1690,-82.9260,1011.02,1111122 
COMPS,ioos:station:USF.COMPS:C10:1,2015-06-04T07:05:00Z,27.1690,-82.9260,1010.98,1111122 
COMPS,ioos:station:USF.COMPS:C10:1,2015-06-04T07:35:00Z,27.1690,-82.9260,1010.96,1111122 
COMPS,ioos:station:USF.COMPS:C10:1,2015-06-04T08:05:00Z,27.1690,-82.9260,1010.89,1111122 
COMPS,ioos:station:USF.COMPS:C10:1,2015-06-04T08:35:00Z,27.1690,-82.9260,1010.82,1111122 
COMPS,ioos:station:USF.COMPS:C10:1,2015-06-04T09:05:00Z,27.1690,-82.9260,1010.75,1111122 
COMPS,ioos:station:USF.COMPS:C10:1,2015-06-04T09:35:00Z,27.1690,-82.9260,1010.84,1111122 
COMPS,ioos:station:USF.COMPS:C10:1,2015-06-04T10:05:00Z,27.1690,-82.9260,1010.95,1111122 
COMPS,ioos:station:USF.COMPS:C10:1,2015-06-04T10:35:00Z,27.1690,-82.9260,1011.43,1111122 
COMPS,ioos:station:USF.COMPS:C10:1,2015-06-04T11:05:00Z,27.1690,-82.9260,1011.73,1111122 
COMPS,ioos:station:USF.COMPS:C10:1,2015-06-04T11:35:00Z,27.1690,-82.9260,1012.02,1111122 
COMPS,ioos:station:USF.COMPS:C10:1,2015-06-04T12:05:00Z,27.1690,-82.9260,1012.04,1111122 
COMPS,ioos:station:USF.COMPS:C10:1,2015-06-04T12:35:00Z,27.1690,-82.9260,1012.13,1111122 
COMPS,ioos:station:USF.COMPS:C10:1,2015-06-04T13:05:00Z,27.1690,-82.9260,1012.38,1111122 
COMPS,ioos:station:USF.COMPS:C10:1,2015-06-04T13:35:00Z,27.1690,-82.9260,1012.31,1111122 
COMPS,ioos:station:USF.COMPS:C10:1,2015-06-04T14:05:00Z,27.1690,-82.9260,1012.56,1111122 
COMPS,ioos:station:USF.COMPS:C10:1,2015-06-04T14:35:00Z,27.1690,-82.9260,1012.7,1111122 
COMPS,ioos:station:USF.COMPS:C10:1,2015-06-04T15:05:00Z,27.1690,-82.9260,1012.9,1111122 
COMPS,ioos:station:USF.COMPS:C10:1,2015-06-04T15:35:00Z,27.1690,-82.9260,1013.1,1111122 
COMPS,ioos:station:USF.COMPS:C10:1,2015-06-04T16:05:00Z,27.1690,-82.9260,1013.35,1111122 
COMPS,ioos:station:USF.COMPS:C10:1,2015-06-04T16:35:00Z,27.1690,-82.9260,1013.36,1111122 
COMPS,ioos:station:USF.COMPS:C10:1,2015-06-04T18:05:00Z,27.1690,-82.9260,1013.26,1111122 
COMPS,ioos:station:USF.COMPS:C10:1,2015-06-04T18:35:00Z,27.1690,-82.9260,1012.95,1111122 
COMPS,ioos:station:USF.COMPS:C10:1,2015-06-04T19:05:00Z,27.1690,-82.9260,1012.68,1111122 
COMPS,ioos:station:USF.COMPS:C10:1,2015-06-04T19:35:00Z,27.1690,-82.9260,1012.43,1111122 
COMPS,ioos:station:USF.COMPS:C10:1,2015-06-04T20:05:00Z,27.1690,-82.9260,1012.25,1111122 
COMPS,ioos:station:USF.COMPS:C10:1,2015-06-04T20:35:00Z,27.1690,-82.9260,1011.88,1111122 
COMPS,ioos:station:USF.COMPS:C10:1,2015-06-04T21:05:00Z,27.1690,-82.9260,1011.61,1111122 
COMPS,ioos:station:USF.COMPS:C10:1,2015-06-04T21:35:00Z,27.1690,-82.9260,1011.48,1111122 
COMPS,ioos:station:USF.COMPS:C10:1,2015-06-04T22:05:00Z,27.1690,-82.9260,1011.47,1111122 
COMPS,ioos:station:USF.COMPS:C10:1,2015-06-04T22:35:00Z,27.1690,-82.9260,1011.07,1111122 
COMPS,ioos:station:USF.COMPS:C10:1,2015-06-04T23:05:00Z,27.1690,-82.9260,1011.34,1111122 
COMPS,ioos:station:USF.COMPS:C10:1,2015-06-04T23:35:00Z,27.1690,-82.9260,1011.56,1111122 
COMPS,ioos:station:USF.COMPS:C10:1,2015-06-05T00:05:00Z,27.1690,-82.9260,1011.88,1111122 
COMPS,ioos:station:USF.COMPS:C10:1,2015-06-05T00:35:00Z,27.1690,-82.9260,1012.14,1111122 
COMPS,ioos:station:USF.COMPS:C10:1,2015-06-05T04:05:00Z,27.1690,-82.9260,1013.45,1111122 
COMPS,ioos:station:USF.COMPS:C10:1,2015-06-05T04:35:00Z,27.1690,-82.9260,1013.49,1111122 
COMPS,ioos:station:USF.COMPS:C10:1,2015-06-05T05:05:00Z,27.1690,-82.9260,1013.28,1111122 
COMPS,ioos:station:USF.COMPS:C10:1,2015-06-05T05:35:00Z,27.1690,-82.9260,1013.21,1111122 
COMPS,ioos:station:USF.COMPS:C10:1,2015-06-05T06:05:00Z,27.1690,-82.9260,1013.02,1111122 
COMPS,ioos:station:USF.COMPS:C10:1,2015-06-05T06:35:00Z,27.1690,-82.9260,1012.82,1111122 
COMPS,ioos:station:USF.COMPS:C10:1,2015-06-05T07:05:00Z,27.1690,-82.9260,1012.78,1111122 
COMPS,ioos:station:USF.COMPS:C10:1,2015-06-05T07:35:00Z,27.1690,-82.9260,1012.54,1111122 
COMPS,ioos:station:USF.COMPS:C10:1,2015-06-05T08:05:00Z,27.1690,-82.9260,1012.41,1111122 
COMPS,ioos:station:USF.COMPS:C10:1,2015-06-05T08:35:00Z,27.1690,-82.9260,1012.25,1111122 
COMPS,ioos:station:USF.COMPS:C10:1,2015-06-05T09:05:00Z,27.1690,-82.9260,1012.19,1111122 
COMPS,ioos:station:USF.COMPS:C10:1,2015-06-05T09:35:00Z,27.1690,-82.9260,1011.97,1111122 
COMPS,ioos:station:USF.COMPS:C10:1,2015-06-05T10:05:00Z,27.1690,-82.9260,1012.15,1111122 
COMPS,ioos:station:USF.COMPS:C10:1,2015-06-05T10:35:00Z,27.1690,-82.9260,1012.5,1111122 
COMPS,ioos:station:USF.COMPS:C10:1,2015-06-05T11:05:00Z,27.1690,-82.9260,1012.64,1111122 
COMPS,ioos:station:USF.COMPS:C10:1,2015-06-05T11:35:00Z,27.1690,-82.9260,1012.68,1111122 
COMPS,ioos:station:USF.COMPS:C10:1,2015-06-05T12:05:00Z,27.1690,-82.9260,1012.71,1111122 
COMPS,ioos:station:USF.COMPS:C10:1,2015-06-05T12:35:00Z,27.1690,-82.9260,1012.99,1111122 
COMPS,ioos:station:USF.COMPS:C10:1,2015-06-05T13:05:00Z,27.1690,-82.9260,1013.38,1111122 
COMPS,ioos:station:USF.COMPS:C10:1,2015-06-05T13:35:00Z,27.1690,-82.9260,1013.39,1111122 
COMPS,ioos:station:USF.COMPS:C10:1,2015-06-05T14:05:00Z,27.1690,-82.9260,1013.66,1111122 
COMPS,ioos:station:USF.COMPS:C10:1,2015-06-05T14:35:00Z,27.1690,-82.9260,1013.58,1111122 
COMPS,ioos:station:USF.COMPS:C10:1,2015-06-05T15:05:00Z,27.1690,-82.9260,1013.69,1111122 
COMPS,ioos:station:USF.COMPS:C10:1,2015-06-05T15:35:00Z,27.1690,-82.9260,1013.88,1111122 
COMPS,ioos:station:USF.COMPS:C10:1,2015-06-05T16:05:00Z,27.1690,-82.9260,1014.01,1111122 
COMPS,ioos:station:USF.COMPS:C10:1,2015-06-05T16:35:00Z,27.1690,-82.9260,1013.74,1111122 
COMPS,ioos:station:USF.COMPS:C10:1,2015-06-05T17:05:00Z,27.1690,-82.9260,1013.53,1111122 
COMPS,ioos:station:USF.COMPS:C10:1,2015-06-05T17:35:00Z,27.1690,-82.9260,1013.13,1111122 
COMPS,ioos:station:USF.COMPS:C10:1,2015-06-05T18:05:00Z,27.1690,-82.9260,1012.71,1111122 
COMPS,ioos:station:USF.COMPS:C10:1,2015-06-05T18:35:00Z,27.1690,-82.9260,1012.32,1111122 
COMPS,ioos:station:USF.COMPS:C10:1,2015-06-05T19:05:00Z,27.1690,-82.9260,1012.36,1111122 
COMPS,ioos:station:USF.COMPS:C10:1,2015-06-05T19:35:00Z,27.1690,-82.9260,1012.07,1111122 
COMPS,ioos:station:USF.COMPS:C10:1,2015-06-05T20:05:00Z,27.1690,-82.9260,1011.67,1111122 
COMPS,ioos:station:USF.COMPS:C10:1,2015-06-05T20:35:00Z,27.1690,-82.9260,1011.72,1111122 
COMPS,ioos:station:USF.COMPS:C10:1,2015-06-05T21:05:00Z,27.1690,-82.9260,1010.97,1111122 
COMPS,ioos:station:USF.COMPS:C10:1,2015-06-05T21:35:00Z,27.1690,-82.9260,1010.94,1111122 
COMPS,ioos:station:USF.COMPS:C10:1,2015-06-05T23:05:00Z,27.1690,-82.9260,1011.48,1111122 
COMPS,ioos:station:USF.COMPS:C10:1,2015-06-05T23:35:00Z,27.1690,-82.9260,1011.69,1111122 
COMPS,ioos:station:USF.COMPS:C10:1,2015-06-06T00:05:00Z,27.1690,-82.9260,1011.44,1111122 
COMPS,ioos:station:USF.COMPS:C10:1,2015-06-06T00:35:00Z,27.1690,-82.9260,1011.21,1111122 
COMPS,ioos:station:USF.COMPS:C10:1,2015-06-06T01:05:00Z,27.1690,-82.9260,1011.47,1111122 
COMPS,ioos:station:USF.COMPS:C10:1,2015-06-06T01:35:00Z,27.1690,-82.9260,1011.66,1111122 
COMPS,ioos:station:USF.COMPS:C10:1,2015-06-06T02:05:00Z,27.1690,-82.9260,1011.73,1111122 
COMPS,ioos:station:USF.COMPS:C10:1,2015-06-06T02:35:00Z,27.1690,-82.9260,1011.93,1111122 
COMPS,ioos:station:USF.COMPS:C10:1,2015-06-06T03:05:00Z,27.1690,-82.9260,1011.94,1111122 
COMPS,ioos:station:USF.COMPS:C10:1,2015-06-06T03:35:00Z,27.1690,-82.9260,1012.04,1111122 
COMPS,ioos:station:USF.COMPS:C10:1,2015-06-06T04:05:00Z,27.1690,-82.9260,1012.17,1111122 
COMPS,ioos:station:USF.COMPS:C10:1,2015-06-06T04:35:00Z,27.1690,-82.9260,1011.97,1111122 
COMPS,ioos:station:USF.COMPS:C10:1,2015-06-06T05:05:00Z,27.1690,-82.9260,1011.64,1111122 
COMPS,ioos:station:USF.COMPS:C10:1,2015-06-06T05:35:00Z,27.1690,-82.9260,1011.51,1111122 
COMPS,ioos:station:USF.COMPS:C10:1,2015-06-06T06:05:00Z,27.1690,-82.9260,1011.5,1111122 
COMPS,ioos:station:USF.COMPS:C10:1,2015-06-06T06:35:00Z,27.1690,-82.9260,1011.3,1111122 
COMPS,ioos:station:USF.COMPS:C10:1,2015-06-06T07:05:00Z,27.1690,-82.9260,1011.01,1111122 
COMPS,ioos:station:USF.COMPS:C10:1,2015-06-06T07:35:00Z,27.1690,-82.9260,1010.91,1111122 
COMPS,ioos:station:USF.COMPS:C10:1,2015-06-06T08:05:00Z,27.1690,-82.9260,1010.88,1111122 
COMPS,ioos:station:USF.COMPS:C10:1,2015-06-06T08:35:00Z,27.1690,-82.9260,1010.84,1111122 
COMPS,ioos:station:USF.COMPS:C10:1,2015-06-06T09:05:00Z,27.1690,-82.9260,1010.6,1111122 
COMPS,ioos:station:USF.COMPS:C10:1,2015-06-06T09:35:00Z,27.1690,-82.9260,1010.53,1111122 
COMPS,ioos:station:USF.COMPS:C10:1,2015-06-06T10:05:00Z,27.1690,-82.9260,1010.92,1111122 
COMPS,ioos:station:USF.COMPS:C10:1,2015-06-06T10:35:00Z,27.1690,-82.9260,1011.35,1111122 
COMPS,ioos:station:USF.COMPS:C10:1,2015-06-06T11:05:00Z,27.1690,-82.9260,1011.59,1111122 
COMPS,ioos:station:USF.COMPS:C10:1,2015-06-06T11:35:00Z,27.1690,-82.9260,1011.73,1111122 
COMPS,ioos:station:USF.COMPS:C10:1,2015-06-06T12:05:00Z,27.1690,-82.9260,1011.61,1111122 
COMPS,ioos:station:USF.COMPS:C10:1,2015-06-06T12:35:00Z,27.1690,-82.9260,1011.9,1111122 
COMPS,ioos:station:USF.COMPS:C10:1,2015-06-06T13:05:00Z,27.1690,-82.9260,1012.01,1111122 
COMPS,ioos:station:USF.COMPS:C10:1,2015-06-06T13:35:00Z,27.1690,-82.9260,1012.4,1111122 
COMPS,ioos:station:USF.COMPS:C10:1,2015-06-06T14:05:00Z,27.1690,-82.9260,1012.08,1111122 
COMPS,ioos:station:USF.COMPS:C10:1,2015-06-06T22:15:00Z,27.1690,-82.9260,1010.06,1111122 
COMPS,ioos:station:USF.COMPS:C10:1,2015-06-06T22:25:00Z,27.1690,-82.9260,1010.14,1111122 
COMPS,ioos:station:USF.COMPS:C10:1,2015-06-06T22:55:00Z,27.1690,-82.9260,1010.53,1111122 
COMPS,ioos:station:USF.COMPS:C10:1,2015-06-06T23:25:00Z,27.1690,-82.9260,1011.05,1111122 
COMPS,ioos:station:USF.COMPS:C10:1,2015-06-06T23:55:00Z,27.1690,-82.9260,1011.07,1111122 
COMPS,ioos:station:USF.COMPS:C10:1,2015-06-07T00:25:00Z,27.1690,-82.9260,1011.03,1111122 
COMPS,ioos:station:USF.COMPS:C10:1,2015-06-07T00:55:00Z,27.1690,-82.9260,1010.9,1111122 
COMPS,ioos:station:USF.COMPS:C10:1,2015-06-07T07:25:00Z,27.1690,-82.9260,1010.99,1111122 
COMPS,ioos:station:USF.COMPS:C10:1,2015-06-07T07:55:00Z,27.1690,-82.9260,1011.14,1111122 
COMPS,ioos:station:USF.COMPS:C10:1,2015-06-07T08:25:00Z,27.1690,-82.9260,1010.96,1111122 
COMPS,ioos:station:USF.COMPS:C10:1,2015-06-07T08:55:00Z,27.1690,-82.9260,1011.16,1111122 
COMPS,ioos:station:USF.COMPS:C10:1,2015-06-07T09:25:00Z,27.1690,-82.9260,1011.41,1111122 
COMPS,ioos:station:USF.COMPS:C10:1,2015-06-07T09:55:00Z,27.1690,-82.9260,1011.38,1111122 
COMPS,ioos:station:USF.COMPS:C10:1,2015-06-07T15:25:00Z,27.1690,-82.9260,1014.18,1111122 
COMPS,ioos:station:USF.COMPS:C10:1,2015-06-07T15:55:00Z,27.1690,-82.9260,1014.25,1111122 
COMPS,ioos:station:USF.COMPS:C10:1,2015-06-07T16:25:00Z,27.1690,-82.9260,1014.16,1111122 
COMPS,ioos:station:USF.COMPS:C10:1,2015-06-07T16:55:00Z,27.1690,-82.9260,1014.18,1111122 
COMPS,ioos:station:USF.COMPS:C10:1,2015-06-07T17:25:00Z,27.1690,-82.9260,1014.18,1111122 
COMPS,ioos:station:USF.COMPS:C10:1,2015-06-07T17:55:00Z,27.1690,-82.9260,1014.18,1111122 
COMPS,ioos:station:USF.COMPS:C10:1,2015-06-07T18:25:00Z,27.1690,-82.9260,1014.07,1111122 
COMPS,ioos:station:USF.COMPS:C10:1,2015-06-07T18:55:00Z,27.1690,-82.9260,1013.91,1111122 
COMPS,ioos:station:USF.COMPS:C10:1,2015-06-08T00:25:00Z,27.1690,-82.9260,1013.74,1111122 
COMPS,ioos:station:USF.COMPS:C10:1,2015-06-08T03:25:00Z,27.1690,-82.9260,1015.01,1111122 